Time,TemperatureF,DewpointF,PressureIn,WindDirection,WindDirectionDegrees,WindSpeedMPH,WindSpeedGustMPH,Humidity,HourlyPrecipIn,Conditions,Clouds,dailyrainin,SoftwareType,DateUTC
2014-10-21 00:00:00,54.5,50.1,30.08,SSW,205,0.0,0.0,85,0.00,,,-99.99,Weather View 32 v60,2014-10-21 07:00:00,
2014-10-21 00:09:00,54.1,50.0,30.08,SSW,205,0.0,0.0,86,0.00,,,-99.99,Weather View 32 v60,2014-10-21 07:09:00,
2014-10-21 00:19:00,54.0,49.9,30.08,SSW,205,0.0,0.0,86,0.00,,,-99.99,Weather View 32 v60,2014-10-21 07:19:00,
2014-10-21 00:30:00,53.6,50.1,30.08,SW,230,0.0,0.0,88,0.00,,,-99.99,Weather View 32 v60,2014-10-21 07:30:00,
2014-10-21 00:39:00,53.6,50.7,30.08,ENE,62,0.0,0.0,90,0.00,,,-99.99,Weather View 32 v60,2014-10-21 07:39:00,
2014-10-21 00:50:00,53.4,50.9,30.08,ENE,62,0.0,0.0,91,0.00,,,-99.99,Weather View 32 v60,2014-10-21 07:50:00,
2014-10-21 01:00:00,53.1,50.5,30.08,ENE,62,0.0,0.0,91,0.00,,,-99.99,Weather View 32 v60,2014-10-21 08:00:00,
2014-10-21 01:09:00,52.7,49.8,30.08,ENE,62,0.0,0.0,90,0.00,,,-99.99,Weather View 32 v60,2014-10-21 08:09:00,
2014-10-21 01:19:00,52.5,49.7,30.08,North,4,0.0,0.0,90,0.00,,,-99.99,Weather View 32 v60,2014-10-21 08:19:00,
2014-10-21 01:30:00,52.3,49.8,30.08,North,4,0.0,0.0,91,0.00,,,-99.99,Weather View 32 v60,2014-10-21 08:30:00,
2014-10-21 01:40:00,52.0,49.4,30.08,North,4,0.0,0.0,91,0.00,,,-99.99,Weather View 32 v60,2014-10-21 08:40:00,
2014-10-21 01:50:00,51.8,49.3,30.11,North,4,0.0,0.0,91,0.00,,,-99.99,Weather View 32 v60,2014-10-21 08:50:00,
2014-10-21 01:59:00,51.4,48.9,30.11,North,4,0.0,0.0,91,0.00,,,-99.99,Weather View 32 v60,2014-10-21 08:59:00,
2014-10-21 02:09:00,51.3,48.7,30.08,North,4,0.0,0.0,91,0.00,,,-99.99,Weather View 32 v60,2014-10-21 09:09:00,
2014-10-21 02:20:00,51.1,48.8,30.08,North,4,0.0,0.0,92,0.00,,,-99.99,Weather View 32 v60,2014-10-21 09:20:00,
2014-10-21 02:30:00,50.9,48.7,30.08,NNE,15,0.0,0.0,92,0.00,,,-99.99,Weather View 32 v60,2014-10-21 09:30:00,
2014-10-21 02:40:00,50.7,48.8,30.08,NNE,15,0.0,0.0,93,0.00,,,-99.99,Weather View 32 v60,2014-10-21 09:40:00,
2014-10-21 02:50:00,50.5,48.6,30.11,NNE,15,0.0,0.0,93,0.00,,,-99.99,Weather View 32 v60,2014-10-21 09:50:00,
2014-10-21 03:00:00,50.5,48.9,30.11,NNE,15,0.0,0.0,94,0.00,,,-99.99,Weather View 32 v60,2014-10-21 10:00:00,
2014-10-21 03:10:00,50.4,48.7,30.11,NNE,15,0.0,0.0,94,0.00,,,-99.99,Weather View 32 v60,2014-10-21 10:10:00,
2014-10-21 03:20:00,50.2,48.8,30.11,NNE,15,0.0,0.0,95,0.00,,,-99.99,Weather View 32 v60,2014-10-21 10:20:00,
2014-10-21 03:30:00,50.0,48.6,30.11,NNE,15,0.0,0.0,95,0.00,,,-99.99,Weather View 32 v60,2014-10-21 10:30:00,
2014-10-21 03:40:00,49.8,48.4,30.11,NNE,15,0.0,0.0,95,0.00,,,-99.99,Weather View 32 v60,2014-10-21 10:40:00,
2014-10-21 03:49:00,49.6,48.3,30.11,SSW,197,0.0,0.0,95,0.00,,,-99.99,Weather View 32 v60,2014-10-21 10:49:00,
2014-10-21 03:55:00,49.6,48.3,30.11,SSW,197,0.0,0.0,95,0.00,,,-99.99,Weather View 32 v60,2014-10-21 10:55:00,
2014-10-21 04:09:00,49.5,48.1,30.08,ESE,110,0.0,0.0,95,0.00,,,-99.99,Weather View 32 v60,2014-10-21 11:09:00,
2014-10-21 04:19:00,49.5,48.1,30.11,ESE,109,0.0,0.0,95,0.00,,,-99.99,Weather View 32 v60,2014-10-21 11:19:00,
2014-10-21 04:30:00,49.1,47.7,30.11,ESE,110,0.0,0.0,95,0.00,,,-99.99,Weather View 32 v60,2014-10-21 11:30:00,
2014-10-21 04:40:00,48.9,47.8,30.11,ESE,110,0.0,0.0,96,0.00,,,-99.99,Weather View 32 v60,2014-10-21 11:40:00,
2014-10-21 04:49:00,48.7,47.6,30.11,ESE,110,0.0,0.0,96,0.00,,,-99.99,Weather View 32 v60,2014-10-21 11:49:00,
2014-10-21 04:56:00,48.7,47.6,30.11,ESE,110,0.0,0.0,96,0.00,,,-99.99,Weather View 32 v60,2014-10-21 11:56:00,
2014-10-21 05:09:00,48.7,47.6,30.11,ESE,110,0.0,0.0,96,0.00,,,-99.99,Weather View 32 v60,2014-10-21 12:09:00,
2014-10-21 05:19:00,48.4,47.3,30.11,ESE,110,0.0,0.0,96,0.00,,,-99.99,Weather View 32 v60,2014-10-21 12:19:00,
2014-10-21 05:30:00,48.2,47.1,30.11,ESE,110,0.0,0.0,96,0.00,,,-99.99,Weather View 32 v60,2014-10-21 12:30:00,
2014-10-21 05:40:00,48.2,47.1,30.08,NNE,31,0.0,0.0,96,0.00,,,-99.99,Weather View 32 v60,2014-10-21 12:40:00,
2014-10-21 05:50:00,48.0,46.9,30.11,NNE,12,0.0,0.0,96,0.00,,,-99.99,Weather View 32 v60,2014-10-21 12:50:00,
2014-10-21 05:56:00,48.0,46.9,30.11,NNE,12,0.0,0.0,96,0.00,,,-99.99,Weather View 32 v60,2014-10-21 12:56:00,
2014-10-21 06:10:00,47.8,46.8,30.08,North,10,0.0,0.0,96,0.00,,,-99.99,Weather View 32 v60,2014-10-21 13:10:00,
2014-10-21 06:19:00,47.7,46.6,30.08,WNW,298,0.0,0.0,96,0.00,,,-99.99,Weather View 32 v60,2014-10-21 13:19:00,
2014-10-21 06:29:00,47.8,46.8,30.08,West,277,0.0,0.0,96,0.00,,,-99.99,Weather View 32 v60,2014-10-21 13:29:00,
2014-10-21 06:39:00,47.7,46.6,30.08,West,277,0.0,0.0,96,0.00,,,-99.99,Weather View 32 v60,2014-10-21 13:39:00,
2014-10-21 06:49:00,47.8,47.0,30.11,ENE,58,0.0,0.0,97,0.00,,,-99.99,Weather View 32 v60,2014-10-21 13:49:00,
2014-10-21 06:57:00,47.8,47.0,30.11,ENE,58,0.0,0.0,97,0.00,,,-99.99,Weather View 32 v60,2014-10-21 13:57:00,
2014-10-21 07:10:00,47.3,46.5,30.11,ENE,58,0.0,0.0,97,0.00,,,-99.99,Weather View 32 v60,2014-10-21 14:10:00,
2014-10-21 07:19:00,47.1,46.3,30.11,ENE,58,0.0,0.0,97,0.00,,,-99.99,Weather View 32 v60,2014-10-21 14:19:00,
2014-10-21 07:29:00,47.1,46.3,30.11,ENE,58,0.0,0.0,97,0.00,,,-99.99,Weather View 32 v60,2014-10-21 14:29:00,
2014-10-21 07:39:00,47.1,46.3,30.11,ENE,58,0.0,0.0,97,0.00,,,-99.99,Weather View 32 v60,2014-10-21 14:39:00,
2014-10-21 07:49:00,47.3,46.5,30.11,ENE,58,0.0,0.0,97,0.00,,,-99.99,Weather View 32 v60,2014-10-21 14:49:00,
2014-10-21 07:57:00,47.3,46.5,30.11,ENE,58,0.0,0.0,97,0.00,,,-99.99,Weather View 32 v60,2014-10-21 14:57:00,
2014-10-21 08:10:00,48.0,47.2,30.14,ENE,58,0.0,0.0,97,0.00,,,-99.99,Weather View 32 v60,2014-10-21 15:10:00,
2014-10-21 08:19:00,48.6,47.7,30.11,ENE,58,0.0,0.0,97,0.00,,,-99.99,Weather View 32 v60,2014-10-21 15:19:00,
2014-10-21 08:29:00,49.8,49.0,30.11,ENE,58,0.0,0.0,97,0.00,,,-99.99,Weather View 32 v60,2014-10-21 15:29:00,
2014-10-21 08:39:00,50.9,50.1,30.14,SE,136,0.0,0.0,97,0.00,,,-99.99,Weather View 32 v60,2014-10-21 15:39:00,
2014-10-21 08:50:00,52.2,51.3,30.14,East,101,0.0,0.0,97,0.00,,,-99.99,Weather View 32 v60,2014-10-21 15:50:00,
2014-10-21 08:58:00,52.2,51.3,30.14,East,101,0.0,0.0,97,0.00,,,-99.99,Weather View 32 v60,2014-10-21 15:58:00,
2014-10-21 09:09:00,54.7,53.3,30.14,North,351,0.0,0.0,95,0.00,,,-99.99,Weather View 32 v60,2014-10-21 16:09:00,
2014-10-21 09:19:00,56.3,54.3,30.14,WSW,242,0.0,0.0,93,0.00,,,-99.99,Weather View 32 v60,2014-10-21 16:19:00,
2014-10-21 09:29:00,56.7,53.8,30.14,North,351,0.0,0.0,90,0.00,,,-99.99,Weather View 32 v60,2014-10-21 16:29:00,
2014-10-21 09:49:00,57.6,53.1,30.14,East,97,0.0,0.0,85,0.00,,,-99.99,Weather View 32 v60,2014-10-21 16:49:00,
2014-10-21 09:58:00,59.0,51.8,30.14,NNW,334,0.0,0.0,77,0.00,,,-99.99,Weather View 32 v60,2014-10-21 16:58:00,
2014-10-21 10:09:00,60.4,49.8,30.11,NNW,343,0.0,0.0,68,0.00,,,-99.99,Weather View 32 v60,2014-10-21 17:09:00,
2014-10-21 10:19:00,61.7,49.8,30.11,West,262,0.0,0.0,65,0.00,,,-99.99,Weather View 32 v60,2014-10-21 17:19:00,
2014-10-21 10:29:00,62.2,46.8,30.11,NNW,336,0.0,0.0,57,0.00,,,-99.99,Weather View 32 v60,2014-10-21 17:29:00,
2014-10-21 10:39:00,63.7,47.2,30.11,WSW,257,0.0,0.0,55,0.00,,,-99.99,Weather View 32 v60,2014-10-21 17:39:00,